FW0025 Weather Reports


time (UTC)temp
F
wind
direction
speed
knots
gust
knots
rain 1hr
in
rain 24hr
in
rain mn
in
humidity
%
barometer
mb
20260507040028 52 210 0.0 0.0 0.00 0.00 0.00 68 1018.9
20260507034530 52 211 0.0 0.0 0.00 0.00 0.00 69 1018.8
20260507033036 54 211 0.0 1.7 0.00 0.00 0.00 69 1018.7
20260507031543 56 211 0.9 2.6 0.00 0.00 0.00 54 1018.7
20260507030025 55 150 0.0 0.9 0.00 0.00 0.00 54 1018.4
20260507024525 54 150 0.0 0.9 0.00 0.00 0.00 59 1018.3
20260507023025 53 150 0.0 1.7 0.00 0.00 0.00 65 1018.2
20260507021525 52 150 0.0 0.9 0.00 0.00 0.00 78 1018.2
20260507020025 52 150 0.0 1.7 0.00 0.00 0.00 78 1018.3
20260507014527 53 150 0.9 1.7 0.00 0.00 0.00 77 1018.3
20260507013032 54 150 0.9 1.7 0.00 0.00 0.00 75 1018.2
20260507011530 54 150 0.9 2.6 0.00 0.00 0.00 74 1018.2
20260507010022 55 153 0.9 2.6 0.00 0.00 0.00 73 1018.1
20260507004521 55 148 0.9 2.6 0.00 0.00 0.00 71 1018.1
20260507003021 56 200 0.9 2.6 0.00 0.00 0.00 70 1018.2
20260507001525 56 198 0.9 1.7 0.00 0.00 0.00 69 1018.2
20260507000018 57 171 1.7 3.5 0.00 0.00 0.00 69 1018.1
20260506234517 57 233 0.0 3.5 0.00 0.00 0.00 69 1018.2
20260506233017 58 246 0.0 3.5 0.00 0.00 0.00 66 1018.2
20260506231514 59 142 1.7 3.5 0.00 0.00 0.00 66 1018.4
20260506230012 60 146 0.9 3.5 0.00 0.00 0.00 62 1018.5
20260506224510 62 138 1.7 3.5 0.00 0.00 0.00 61 1018.6
20260506223015 62 196 0.9 3.5 0.00 0.00 0.00 61 1018.8
20260506221507 66 236 1.7 3.5 0.00 0.00 0.00 55 1019.0
20260506220007 66 28 0.9 3.5 0.00 0.00 0.00 41 1019.3
20260506214503 65 36 0.9 3.5 0.00 0.00 0.00 41 1019.3
20260506211557 64 271 0.0 2.6 0.00 0.00 0.00 46 1019.8
20260506210054 63 5 0.9 3.5 0.00 0.00 0.00 42 1020.0
20260506204551 62 24 0.9 4.3 0.00 0.00 0.00 48 1020.0
20260506203047 61 351 0.9 4.3 0.00 0.00 0.00 45 1020.1
20260506201545 60 285 0.0 3.5 0.00 0.00 0.00 49 1020.4
20260506200141 59 16 0.9 7.8 0.00 0.00 0.00 50 1020.5
20260506194538 58 279 0.9 5.2 0.00 0.00 0.00 50 1020.6
20260506193036 58 311 0.9 6.1 0.00 0.00 0.00 52 1020.8
20260506191533 57 282 0.9 5.2 0.00 0.00 0.00 51 1021.0
20260506190036 57 14 1.7 3.5 0.00 0.00 0.00 54 1021.2
20260506184534 56 349 0.9 3.5 0.00 0.00 0.00 54 1021.2
20260506183026 55 5 0.9 3.5 0.00 0.00 0.00 53 1021.2
20260506181524 55 19 1.7 4.3 0.00 0.00 0.00 53 1021.3
20260506180026 55 333 0.9 3.5 0.00 0.00 0.00 56 1021.4
20260506174520 54 31 0.9 3.5 0.00 0.02 0.00 61 1021.2
20260506173018 53 360 0.9 3.5 0.00 0.02 0.00 63 1021.1
20260506171514 52 11 0.9 3.5 0.00 0.02 0.00 64 1021.1
20260506170011 52 5 0.9 3.5 0.00 0.02 0.00 62 1021.1
20260506164509 51 5 0.9 2.6 0.00 0.05 0.00 66 1021.0
20260506163007 50 360 1.7 4.3 0.00 0.05 0.00 66 1021.0
20260506161502 50 16 0.9 4.3 0.00 0.05 0.00 70 1020.8
20260506160111 49 30 0.9 4.3 0.00 0.05 0.00 75 1020.7
20260506154600 47 5 0.9 2.6 0.00 0.09 0.00 77 1020.7
20260506153057 46 333 0.9 1.7 0.00 0.09 0.00 80 1020.7
20260506151549 45 333 0.9 2.6 0.00 0.09 0.00 83 1020.8
20260506150044 44 332 0.9 1.7 0.00 0.09 0.00 83 1020.9
20260506144542 43 11 0.9 1.7 0.00 0.14 0.00 85 1020.8
20260506143040 41 11 0.9 1.7 0.00 0.14 0.00 86 1020.6
20260506141534 41 11 0.9 2.6 0.00 0.14 0.00 87 1020.6
20260506140031 40 11 0.9 1.7 0.00 0.14 0.00 86 1020.4
20260506134529 40 11 0.9 2.6 0.00 0.19 0.00 87 1020.2
20260506133027 39 11 0.9 2.6 0.00 0.19 0.00 88 1020.0
20260506131532 39 11 0.9 2.6 0.00 0.19 0.00 87 1019.9
20260506130023 39 11 0.9 2.6 0.00 0.19 0.00 87 1019.7
20260506124522 39 11 0.9 3.5 0.00 0.23 0.00 87 1019.6
20260506123020 38 16 0.9 2.6 0.00 0.23 0.00 89 1019.5
20260506121518 38 16 0.9 2.6 0.00 0.23 0.00 88 1019.3
20260506120020 38 16 1.7 2.6 0.00 0.23 0.00 88 1019.3
20260506114517 38 16 1.7 3.5 0.00 0.24 0.00 89 1019.3
20260506113016 38 16 0.9 2.6 0.00 0.24 0.00 90 1019.2
20260506111515 38 16 0.9 2.6 0.00 0.24 0.00 90 1019.1
20260506110020 39 16 1.7 2.6 0.00 0.24 0.00 89 1019.0
20260506104513 38 16 0.9 2.6 0.00 0.24 0.00 90 1018.9
20260506103011 39 16 0.9 2.6 0.00 0.24 0.00 91 1018.8
20260506101521 40 16 0.9 3.5 0.00 0.24 0.00 93 1018.8
20260506100005 38 279 1.7 2.6 0.00 0.24 0.00 94 1018.8
20260506094507 37 211 0.0 0.9 0.00 0.25 0.00 94 1018.8
20260506093002 37 211 0.0 0.9 0.00 0.25 0.00 94 1018.7
20260506091502 37 211 0.0 1.7 0.00 0.25 0.00 94 1018.8
20260506090059 36 211 0.0 1.7 0.00 0.25 0.00 94 1018.8
20260506084622 36 211 0.9 1.7 0.00 0.26 0.00 94 1018.9
20260506083056 37 211 0.9 1.7 0.00 0.26 0.00 94 1019.0
20260506081556 37 211 0.9 1.7 0.00 0.26 0.00 94 1019.2
20260506073050 37 211 0.0 1.7 0.00 0.27 0.00 94 1019.2
20260506071546 37 211 0.9 1.7 0.00 0.27 0.00 94 1019.3
20260506061540 37 211 0.0 1.7 0.00 0.28 0.27 94 1018.8
20260506044606 39 205 0.0 1.7 0.00 0.28 0.27 94 1018.0
20260506043032 39 205 0.0 1.7 0.00 0.28 0.27 94 1017.8
20260506041529 39 205 0.0 0.9 0.00 0.28 0.27 94 1017.6